Regional Weather Roundup
Issued by NWS Sioux Falls, SD

Home | Current Version | Previous Version | Text Only | Print | Product List | Glossary On
Versions: 1 2 3 4 5 6 7 8 9 10 11 12 13 14 15 16 17 18 19 20 21 22 23 24 25 26 27 28 29 30 31 32 33 34 35 36 37 38 39 40 41 42 43 44 45 46 47 48 49 50
000
ASUS43 KFSD 182002
RWRFSD

WEATHER ROUNDUP FOR SE SOUTH DAKOTA/SW MINNESOTA/NW IOWA
NATIONAL WEATHER SERVICE SIOUX FALLS SD
200 PM CST WED JAN 18 2017

NOTE: "FAIR" INDICATES FEW OR NO CLOUDS BELOW 12,000 FEET WITH NO
SIGNIFICANT WEATHER AND OR OBSTRUCTIONS TO VISIBILITY.


SDZ038>040-050-052>070-182100-
SOUTHEAST SOUTH DAKOTA

CITY           SKY/WX    TMP DP  RH WIND       PRES   REMARKS
BROOKINGS      SUNNY     40  29  64 S3        29.79F
CHAMBERLAIN    SUNNY     45  28  52 CALM      29.75F
HURON          SUNNY     38  27  64 SE6       29.78F
MADISON          N/A     39  36  87 S15         N/A
MITCHELL       SUNNY     44  33  65 SE9       29.79F
SIOUX FALLS    MOSUNNY   43  34  70 S7        29.82F
WINNER         FAIR      52  25  35 SW12      29.74F
YANKTON        SUNNY     50  36  57 S9        29.80F
$$

MNZ071-072-080-081-089-090-097-098-182100-
SOUTHWEST MINNESOTA

CITY           SKY/WX    TMP DP  RH WIND       PRES   REMARKS
FAIRMONT       SUNNY     39  34  82 S14       29.85
JACKSON        SUNNY     37  32  81 SW15      29.84F
LUVERNE        SUNNY     37  32  81 S9        29.84F
MARSHALL       SUNNY     41  30  65 SW10      29.80F
MONTEVIDEO       N/A    N/A N/A N/A MISG        N/A
PIPESTONE      SUNNY     37  34  87 S9        29.81F
REDWOOD FALLS  SUNNY     38  31  76 S10       29.82F
TRACY          SUNNY     40  33  76 SW18      29.80F
WINDOM         SUNNY     39  34  81 SW13      29.83F
WORTHINGTON    SUNNY     39  33  79 SW16      29.82F
$$

IAZ001>003-012>014-020>022-031-032-NEZ013-014-SDZ071-182100-
NORTHWEST IOWA

CITY           SKY/WX    TMP DP  RH WIND       PRES   REMARKS
CHEROKEE       SUNNY     46  42  83 S8        29.88F
DENISON        SUNNY     46  39  76 SW13G20   29.89F
ESTHERVILLE    SUNNY     40  37  89 SW10      29.86F
LE MARS        SUNNY     46  41  81 S13       29.87F
ORANGE CITY    SUNNY     45  39  81 S12       29.85F
SHELDON        SUNNY     43  43 100 S12       29.83F
SIOUX CITY     SUNNY     50  40  68 SW10      29.88F
SPENCER        SUNNY     42  38  85 S8        29.86F
STORM LAKE     SUNNY     43  39  87 SW16      29.89S
$$

ABBREVIATIONS USED IN REMARKS
   TC - TEMPERATURE IN CELSIUS
  WCI - WIND CHILL INDEX
   HX - HEAT INDEX
  VSB - VISIBILITY




USA.gov is the U.S. government's official web portal to all federal, state and local government web resources and services.